[[[{"header":{"parameterUnit":"kt","parameterCategory":2,"dx":1,"dy":1,"la1":30.253999710083008,"la2":30.299108505249023,"lo1":-89.0895004272461,"lo2":-89.04439544677734,"nx":28,"ny":28,"refTime":"2022-10-03T21:00:00:Z","depth":0,"parameterNumber":1,"parameterNumberName":"U-component_of_WINDS"},"data":[-5.0333,-5.0478,-5.0469,-5.0629,-5.0648,-5.0754,-5.0789,-5.0832,-5.0863,-5.0986,-5.1054,-5.1056,-5.1079,-5.1156,-5.1226,-5.1224,-5.1255,-5.1315,-5.1302,-5.1049,-5.1013,-5.0979,-5.0945,-5.1322,-5.1322,-5.1566,-5.1568,-5.157,-5.015,-5.0171,-5.0254,-5.0327,-5.0396,-5.0334,-5.0385,-5.0446,-5.0542,-5.058,-5.0647,-5.0752,-5.0833,-5.0835,-5.091,-5.0974,-5.0947,-5.0995,-5.099,-5.0994,-5.0723,-5.0688,-5.1016,-5.1016,-5.1016,-5.1015,-5.1015,-5.1015,-4.9815,-4.9903,-4.9941,-5.003,-5.0063,-5.0111,-5.0191,-5.0193,-5.027,-5.0349,-5.0319,-5.0425,-5.0459,-5.0541,-5.0564,-5.0645,-5.0588,-5.0636,-5.0648,-5.0661,-5.0677,-5.0328,-5.0656,-5.0655,-5.0654,-5.0653,-5.0653,0,-4.9567,-4.9553,-4.9631,-4.9706,-4.9769,-4.9825,-4.9874,-4.9923,-4.9884,-4.9949,-5.0042,-5.0092,-5.0191,-5.0274,-5.034,-5.0353,-5.0291,-5.0283,-5.0315,-5.0333,-5.034,-5.0338,-4.9897,-5.0273,-5.0269,-5.0267,-5.0265,-5.0264,-4.9228,-4.933,-4.9365,-4.942,-4.9444,-4.9534,-4.9584,-4.9543,-4.9598,-4.9649,-4.9726,-4.9809,-4.9874,-5.002,-5.0015,-5.0087,-5.0056,-5.0202,-5.0067,-5.008,-5.0059,-5.0054,-5.0063,-5.0229,-5.0233,-5.0237,-5.024,0,-4.9038,-4.9021,-4.9175,-4.9197,-4.9205,-4.9314,-4.9331,-4.9414,-4.9404,-4.9516,-4.954,-4.9524,-4.9613,-4.9584,-4.9679,-4.9661,-4.9835,-4.9803,-4.9824,-4.9816,-4.9943,-4.9932,-5.036,-5.0414,-5.0022,-5.0026,-5.0029,0,-4.8742,-4.8877,-4.8842,-4.8932,-4.908,-4.9035,-4.9182,-4.9188,-4.9216,-4.9304,-4.923,-4.9313,-4.9263,-4.9342,-4.9315,-4.9452,-4.9469,-4.9463,-4.9454,-4.947,-4.9471,-4.9497,-4.9479,-4.943,-4.9428,-4.9426,-4.9424,0,-4.8446,-4.8585,-4.8732,-4.876,-4.8795,-4.8864,-4.8882,-4.8912,-4.8961,-4.9018,-4.9049,-4.9119,-4.9157,-4.9211,-4.9177,-4.9086,-4.9343,-4.9211,-4.9336,-4.9338,-4.9394,-4.9391,-4.9778,-4.9421,-4.9421,-4.942,-4.9419,0,-4.8203,-4.8266,-4.8482,-4.8509,-4.8547,-4.8642,-4.8709,-4.8785,-4.8822,-4.8812,-4.8856,-4.8802,-4.8919,-4.8791,-4.8951,-4.8843,-4.8885,-4.8889,-4.8897,-4.8906,-4.8763,-4.8986,-4.9357,-4.9395,-4.8914,-4.891,-4.8906,0,-4.787,-4.8082,-4.8045,-4.8249,-4.8343,-4.8254,-4.8359,-4.8394,-4.8389,-4.8466,-4.8458,-4.8545,-4.8443,-4.8466,-4.8549,-4.8544,-4.8684,-4.8525,-4.8632,-4.8637,-4.8627,-4.8968,-4.9031,-4.9279,-4.8852,-4.8858,-4.8862,0,-4.7609,-4.7652,-4.7691,-4.7721,-4.7762,-4.7839,-4.7959,-4.8036,-4.8089,-4.8136,-4.8235,-4.8355,-4.8283,-4.8321,-4.8283,-4.8371,-4.8588,-4.8281,-4.8281,-4.8338,-4.8822,-4.8881,-4.8923,-4.8543,-4.8549,-4.8555,-4.8819,0,-4.7246,-4.7349,-4.7454,-4.7522,-4.7577,-4.7703,-4.7674,-4.7735,-4.7694,-4.7686,-4.783,-4.7848,-4.7924,-4.7963,-4.7923,-4.8134,-4.8094,-4.8015,-4.7887,-4.8112,-4.8198,-4.8233,-4.7762,-4.7758,-4.7755,-4.7752,0,0,-4.6932,-4.7079,-4.7033,-4.7149,-4.7192,-4.7097,-4.7234,-4.7264,-4.7328,-4.7359,-4.7288,-4.7461,-4.7479,-4.7656,-4.7723,-4.7753,-4.7788,-4.771,-4.8005,-4.8034,-4.806,-4.8153,-4.819,-4.7746,-4.7745,-4.7744,-4.7743,0,-4.6793,-4.6819,-4.6956,-4.6986,-4.7029,-4.7014,-4.7047,-4.7072,-4.7072,-4.7213,-4.713,-4.7211,-4.735,-4.738,-4.7414,-4.7689,-4.762,-4.7713,-4.7873,-4.7973,-4.8006,-4.8035,-4.8133,-4.8168,-4.7734,-4.7735,-4.7735,0,-4.6531,-4.6551,-4.6614,-4.671,-4.6736,-4.6834,-4.6693,-4.6802,-4.6873,-4.6759,-4.69,-4.6906,-4.6943,-4.7114,-4.7189,-4.7126,-4.7469,-4.7355,-4.7375,-4.7382,-4.7477,-4.7517,-4.7552,-4.7089,-4.7086,-4.7084,0,0,-4.6415,-4.651,-4.6517,-4.6677,-4.67,-4.6679,-4.6727,-4.6691,-4.6729,-4.6744,-4.675,-4.6787,-4.6867,-4.692,-4.6993,-4.7185,-4.7189,-4.7277,-4.7307,-4.7332,-4.7353,-4.7455,-4.7494,-4.7077,-4.7076,-4.7076,0,0,-4.6358,-4.6373,-4.6326,-4.651,-4.655,-4.6564,-4.6663,-4.6604,-4.6667,-4.6649,-4.6591,-4.6598,-4.6757,-4.6766,-4.6663,-4.6947,-4.6821,-4.6845,-4.6935,-4.6973,-4.7003,-4.6998,-4.652,0,0,0,0,0,-4.6201,-4.6371,-4.6329,-4.6355,-4.6474,-4.6589,-4.6603,-4.6561,-4.6473,-4.6552,-4.6548,-4.6471,-4.6698,-4.6606,-4.6632,-4.6746,-4.6974,-4.6992,-4.7009,-4.7171,-4.7211,-4.7245,0,0,0,0,0,0,-4.6211,-4.6244,-4.6324,-4.6347,-4.6373,-4.6582,-4.6424,-4.6417,-4.6463,-4.6447,-4.6474,-4.6472,-4.6436,-4.659,-4.6614,-4.6724,-4.6511,-4.6981,-4.6996,-4.701,-4.7185,-4.7218,-4.7246,0,0,0,0,0,-4.6219,-4.6245,-4.6447,-4.6344,-4.6367,-4.6351,-4.6417,-4.641,-4.6445,-4.6438,-4.6433,-4.6409,-4.644,-4.6457,-4.6604,-4.6714,-4.6495,-4.6504,-4.6991,-4.7003,-4.7014,-4.7201,0,0,0,0,0,0,-4.6225,-4.6238,-4.645,-4.6455,-4.6277,-4.6339,-4.6347,-4.6405,-4.6432,-4.6429,-4.6369,-4.6356,-4.6445,-4.6457,-4.6471,-4.6713,-4.6481,-4.649,-4.6496,-4.7,-4.701,-4.7018,0,0,0,0,0,0,-4.6224,-4.6244,-4.6453,-4.637,-4.6366,-4.6327,-4.6335,-4.6453,-4.6434,-4.6361,-4.6351,-4.6363,-4.6424,-4.6458,-4.6468,-4.6654,-4.6471,-4.6479,-4.6486,-4.6489,-4.7008,-4.7016,0,0,0,0,0,0,-4.6231,-4.6248,-4.6369,-4.6365,-4.6361,-4.6415,-4.643,-4.6553,-4.6366,-4.6361,-4.6348,-4.6339,-4.6427,-4.6436,-4.6468,-4.665,-4.6653,-4.6471,-4.6477,-4.6481,-4.6484,0,0,0,0,0,0,0,-4.6237,-4.6136,-4.642,-4.6361,-4.6356,-4.6503,-4.6505,-4.6506,-4.6364,-4.6357,-4.635,-4.6343,-4.6421,-4.643,-4.644,-4.6646,0,0,-4.647,-4.6474,0,0,0,0,0,0,0,0,-4.6128,-4.6134,-4.642,-4.6421,-4.6422,-4.6504,-4.6505,-4.6506,-4.6363,-4.6357,-4.6351,-4.6346,-4.6423,-4.6431,-4.6439,0,0,0,0,0,0,0,0,0,0,0,0,0,0,0,-4.642,-4.6421,0,-4.6504,-4.6505,-4.6506,-4.6362,-4.6357,-4.6353,-4.6348,-4.6425,-4.6432,-4.6438,0,0,0,0,0,0,0,0,0,0,0,0,0,0,0,0,0,0,0,0,0,0,0,0,0,0,0,0,0,0,0,0,0,0,0,0,0,0,0,0,0,0,0,0,0,0,0,0,0,0,0,0,0,0,0,0,0,0,0,0,0,0,0,0,0,0,0,0,0]}],[{"header":{"parameterUnit":"kt","parameterCategory":2,"dx":1,"dy":1,"la1":30.253999710083008,"la2":30.299108505249023,"lo1":-89.0895004272461,"lo2":-89.04439544677734,"nx":28,"ny":28,"refTime":"2022-10-03T21:00:00:Z","depth":0,"parameterNumber":2,"parameterNumberName":"V-component_of_WINDS"},"data":[-6.7104,-6.7241,-6.7261,-6.7424,-6.7469,-6.7583,-6.7629,-6.769,-6.7742,-6.7877,-6.7956,-6.7986,-6.8043,-6.8139,-6.8224,-6.8234,-6.8269,-6.8303,-6.8309,-6.8143,-6.8121,-6.81,-6.807,-6.831,-6.831,-6.8479,-6.848,-6.8481,-6.6977,-6.7024,-6.7117,-6.722,-6.7299,-6.7278,-6.7356,-6.7423,-6.7524,-6.7589,-6.767,-6.7788,-6.7882,-6.7928,-6.8021,-6.808,-6.8074,-6.8104,-6.81,-6.8108,-6.7932,-6.79,-6.8107,-6.8107,-6.8107,-6.8107,-6.8107,-6.8107,-6.6751,-6.6833,-6.6908,-6.7009,-6.7066,-6.7134,-6.7214,-6.7251,-6.734,-6.7443,-6.7446,-6.756,-6.7626,-6.7747,-6.779,-6.7876,-6.7846,-6.7883,-6.7892,-6.7901,-6.7909,-6.7662,-6.7892,-6.7892,-6.7891,-6.7891,-6.7891,0,-6.6592,-6.6604,-6.6695,-6.6792,-6.6867,-6.6943,-6.7015,-6.7065,-6.7092,-6.7163,-6.7268,-6.7331,-6.7453,-6.7551,-6.7641,-6.7679,-6.7661,-6.7661,-6.7687,-6.7688,-6.7676,-6.7683,-6.7393,-6.7655,-6.7653,-6.7651,-6.765,-6.7649,-6.6366,-6.6459,-6.6547,-6.6608,-6.6654,-6.6752,-6.6813,-6.6831,-6.6895,-6.6984,-6.7053,-6.7153,-6.7233,-6.7394,-6.7433,-6.7523,-6.7515,-6.7612,-6.7528,-6.7524,-6.7515,-6.751,-6.7518,-6.7629,-6.7631,-6.7633,-6.7635,0,-6.6235,-6.6269,-6.642,-6.6497,-6.6519,-6.6615,-6.6679,-6.676,-6.6787,-6.6901,-6.6928,-6.697,-6.7071,-6.7094,-6.7213,-6.7222,-6.7372,-6.7363,-6.7349,-6.7348,-6.7438,-6.7429,-6.7726,-6.7765,-6.7518,-6.752,-6.7522,0,-6.6055,-6.6177,-6.6219,-6.6305,-6.6439,-6.6455,-6.6587,-6.6623,-6.6684,-6.6774,-6.676,-6.6844,-6.6861,-6.6947,-6.696,-6.7088,-6.711,-6.7124,-6.7126,-6.7126,-6.7124,-6.7158,-6.7146,-6.7128,-6.7126,-6.7125,-6.7124,0,-6.5848,-6.6014,-6.6154,-6.6197,-6.6292,-6.6356,-6.6397,-6.6466,-6.6526,-6.6606,-6.6644,-6.6736,-6.6786,-6.6856,-6.6873,-6.6814,-6.7029,-6.6953,-6.7043,-6.7043,-6.709,-6.7087,-6.7344,-6.7122,-6.7122,-6.7121,-6.7121,0,-6.5707,-6.5794,-6.5993,-6.6071,-6.6113,-6.6205,-6.6299,-6.6383,-6.6455,-6.6471,-6.6534,-6.6528,-6.6643,-6.6564,-6.6722,-6.6641,-6.669,-6.6714,-6.6721,-6.6733,-6.6645,-6.6786,-6.703,-6.7056,-6.6742,-6.6739,-6.6737,0,-6.5461,-6.5671,-6.5688,-6.5875,-6.5976,-6.5955,-6.6056,-6.6122,-6.6152,-6.6238,-6.6269,-6.6367,-6.6314,-6.6348,-6.6423,-6.6457,-6.6562,-6.6444,-6.6563,-6.6567,-6.6545,-6.6769,-6.68,-6.6974,-6.6697,-6.6701,-6.6704,0,-6.5274,-6.5393,-6.5425,-6.5475,-6.5568,-6.5652,-6.5768,-6.5871,-6.5928,-6.6004,-6.61,-6.6238,-6.6203,-6.626,-6.6264,-6.6341,-6.6491,-6.6293,-6.6294,-6.6327,-6.6679,-6.6707,-6.6737,-6.6476,-6.6481,-6.6485,-6.6672,0,-6.5053,-6.5163,-6.5253,-6.5364,-6.5434,-6.5553,-6.5584,-6.5651,-6.565,-6.5679,-6.5821,-6.5881,-6.5983,-6.6023,-6.6021,-6.6191,-6.6166,-6.6128,-6.6053,-6.6201,-6.6263,-6.6288,-6.5958,-6.5956,-6.5954,-6.5953,0,0,-6.4808,-6.4968,-6.4984,-6.51,-6.5159,-6.5137,-6.5262,-6.5316,-6.5427,-6.5467,-6.5426,-6.563,-6.5681,-6.5849,-6.5898,-6.5939,-6.5971,-6.5919,-6.613,-6.615,-6.6168,-6.6234,-6.6261,-6.595,-6.5949,-6.5949,-6.5948,0,-6.4734,-6.4793,-6.4918,-6.4977,-6.5064,-6.509,-6.512,-6.5201,-6.5226,-6.5367,-6.5344,-6.5432,-6.5596,-6.5652,-6.5702,-6.5899,-6.5876,-6.5928,-6.6025,-6.6112,-6.6134,-6.6154,-6.6223,-6.6248,-6.5944,-6.5944,-6.5944,0,-6.4555,-6.4618,-6.4683,-6.482,-6.4876,-6.498,-6.491,-6.5024,-6.51,-6.5067,-6.5207,-6.5245,-6.5322,-6.5479,-6.555,-6.5514,-6.5788,-6.5707,-6.5719,-6.5727,-6.5813,-6.5839,-6.5863,-6.5553,-6.5552,-6.555,0,0,-6.4487,-6.4591,-6.4663,-6.4806,-6.4844,-6.4885,-6.4943,-6.4949,-6.5022,-6.5051,-6.5099,-6.5169,-6.5263,-6.5325,-6.5416,-6.5584,-6.56,-6.5658,-6.5677,-6.5692,-6.5708,-6.5797,-6.5824,-6.5545,-6.5545,-6.5544,0,0,-6.4454,-6.4545,-6.4532,-6.4703,-6.4775,-6.4853,-6.4938,-6.4923,-6.5009,-6.4998,-6.501,-6.5029,-6.5176,-6.5213,-6.5136,-6.5389,-6.5315,-6.5334,-6.536,-6.5384,-6.5402,-6.539,-6.5071,0,0,0,0,0,-6.4395,-6.4534,-6.4521,-6.4555,-6.4727,-6.4861,-6.4882,-6.4898,-6.4845,-6.4911,-6.4949,-6.4921,-6.5173,-6.5105,-6.5136,-6.5222,-6.5473,-6.5486,-6.5498,-6.5571,-6.5596,-6.5616,0,0,0,0,0,0,-6.4409,-6.445,-6.4518,-6.4602,-6.4641,-6.4856,-6.477,-6.4778,-6.4838,-6.4831,-6.4915,-6.4924,-6.4937,-6.509,-6.5118,-6.52,-6.5061,-6.5478,-6.5489,-6.5499,-6.5579,-6.5599,-6.5617,0,0,0,0,0,-6.4419,-6.4452,-6.4726,-6.46,-6.4634,-6.4687,-6.4765,-6.4771,-6.4817,-6.4876,-6.4884,-6.4824,-6.4939,-6.4963,-6.5107,-6.5187,-6.5042,-6.5053,-6.5485,-6.5494,-6.5501,-6.5589,0,0,0,0,0,0,-6.4427,-6.4457,-6.4733,-6.4744,-6.455,-6.4675,-6.4696,-6.4765,-6.4859,-6.4868,-6.4785,-6.4778,-6.4942,-6.496,-6.4979,-6.5182,-6.5027,-6.5037,-6.5044,-6.5492,-6.5498,-6.5504,0,0,0,0,0,0,-6.444,-6.4467,-6.4739,-6.4675,-6.4679,-6.4665,-6.4683,-6.4807,-6.486,-6.4762,-6.4759,-6.4781,-6.4912,-6.4959,-6.4973,-6.5166,-6.5015,-6.5025,-6.5032,-6.5036,-6.5497,-6.5502,0,0,0,0,0,0,-6.4451,-6.4474,-6.4672,-6.4675,-6.4678,-6.4799,-6.4774,-6.4949,-6.4809,-6.4758,-6.4796,-6.4791,-6.4912,-6.4926,-6.4969,-6.5156,-6.5164,-6.5015,-6.5022,-6.5027,-6.503,0,0,0,0,0,0,0,-6.4461,-6.4303,-6.467,-6.4675,-6.4677,-6.4843,-6.4846,-6.4849,-6.4807,-6.4803,-6.4798,-6.4793,-6.4958,-6.4969,-6.498,-6.5149,0,0,-6.5014,-6.5019,0,0,0,0,0,0,0,0,-6.4293,-6.43,-6.4671,-6.4673,-6.4675,-6.4844,-6.4846,-6.4848,-6.4807,-6.4803,-6.4799,-6.4795,-6.4961,-6.4969,-6.4978,0,0,0,0,0,0,0,0,0,0,0,0,0,0,0,-6.4671,-6.4673,0,-6.4844,-6.4846,-6.4848,-6.4806,-6.4803,-6.4799,-6.4796,-6.4963,-6.497,-6.4978,0,0,0,0,0,0,0,0,0,0,0,0,0,0,0,0,0,0,0,0,0,0,0,0,0,0,0,0,0,0,0,0,0,0,0,0,0,0,0,0,0,0,0,0,0,0,0,0,0,0,0,0,0,0,0,0,0,0,0,0,0,0,0,0,0,0,0,0,0]}]]]